SCP
0 0 0 0 0 0 0 0 0 0 0 0 0 1 1 1 1 1 1 1 1 1 1 1 1 1 1 1 1 1 1 0 0 0 0 0 0 0 0 0 0 0 0 0
0 0 0 0 0 0 0 0 0 0 0 0 1 1 1 1 1 1 1 1 1 1 1 1 1 1 1 1 1 1 1 0 0 0 0 0 0 0 0 0 0 0 0 0
0 0 0 0 0 0 0 0 0 0 0 1 1 1 1 1 1 1 1 1 1 1 1 1 1 1 1 1 1 1 0 0 0 0 0 0 0 0 0 0 0 0 0 0
0 0 0 0 0 0 0 0 0 1 1 1 1 1 1 1 1 1 1 1 1 1 1 1 1 1 1 1 1 0 0 0 0 0 0 0 0 0 0 0 0 0 0 0
0 0 0 0 0 0 0 1 1 1 1 1 1 1 1 1 1 1 1 1 1 1 1 1 1 1 1 1 0 0 0 0 0 0 0 0 0 0 0 0 0 0 0 0
0 0 0 0 0 0 0 1 1 1 1 1 1 1 1 1 1 1 1 1 1 1 1 1 1 1 1 0 0 0 0 0 0 0 0 0 0 0 0 0 0 0 0 0
0 0 0 0 0 0 0 1 1 1 1 1 1 1 1 1 1 0 0 0 1 1 1 1 0 0 0 0 0 0 0 0 0 0 0 0 0 0 0 0 0 0 0 0
0 0 0 0 0 0 0 1 1 1 1 1 1 1 1 1 0 0 0 0 0 0 0 0 0 0 0 0 0 0 0 0 0 0 0 0 0 0 0 0 0 0 0 0
0 0 0 0 0 0 0 1 1 1 1 1 1 1 0 0 0 0 0 0 0 0 0 0 0 0 0 0 0 0 0 0 0 0 0 0 0 0 0 0 0 0 0 0
0 0 0 0 0 0 0 1 1 1 0 0 0 0 0 0 0 0 0 0 0 0 0 0 0 0 0 0 0 0 0 0 0 0 0 0 0 0 0 0 0 0 0 0
0 0 0 0 0 0 0 0 0 0 0 0 0 0 0 0 0 0 0 0 0 0 0 0 0 0 0 0 0 0 0 0 0 0 0 0 0 0 0 0 0 0 0 0
0 0 0 0 0 0 0 0 0 0 0 0 0 0 0 0 0 0 0 0 0 0 0 0 0 0 0 0 0 0 0 0 0 0 0 0 0 0 0 0 0 0 0 0
0 0 0 0 0 0 0 0 0 0 0 0 0 0 0 0 0 0 0 0 0 0 0 0 0 0 0 0 0 0 0 0 0 0 0 0 0 0 0 0 0 0 0 0
0 0 0 0 0 0 0 0 0 0 0 0 0 0 0 0 0 0 0 0 0 0 0 0 0 0 0 0 0 0 0 0 0 0 0 0 0 0 0 0 0 0 0 0
0 0 0 0 0 0 0 0 0 0 0 0 0 0 0 0 0 0 0 0 0 0 0 0 0 0 0 0 0 0 0 0 0 0 0 0 0 0 0 0 0 0 0 0
0 0 0 0 0 0 0 0 0 0 0 0 0 0 0 0 0 0 0 0 0 0 0 0 0 0 0 0 0 0 0 0 0 0 0 0 0 0 0 0 0 0 0 0
0 0 0 0 0 0 0 0 0 0 0 0 0 0 0 0 0 0 0 0 0 0 0 0 0 0 0 0 0 0 0 0 0 0 0 0 0 0 0 0 0 0 0 0
0 0 0 0 0 0 0 0 0 0 0 0 0 0 0 0 0 0 0 0 0 0 0 0 0 0 0 0 0 0 0 0 0 0 0 0 0 0 0 0 0 0 0 0
0 0 0 0 0 0 0 0 0 0 0 0 0 0 0 0 0 0 0 0 0 0 0 0 0 0 0 0 0 0 0 0 0 0 0 0 0 0 0 0 0 0 0 0
0 0 0 0 0 0 0 0 0 0 0 0 0 0 0 0 0 0 0 0 0 0 0 0 -0 0 0 0 0 0 0 0 0 0 0 0 0 0 0 0 0 0 0 0
0 0 0 0 0 0 0 0 0 0 0 0 0 0 0 0 0 0 0 0 0 0 0 0 0 0 0 0 0 0 0 0 0 0 0 0 0 0 0 0 0 0 0 0
0 0 0 0 0 0 0 0 0 0 0 0 0 0 0 0 0 0 0 0 0 0 0 0 0 0 0 0 -0 -0 -0 0 0 0 0 0 0 0 0 0 0 0 0 0
0 0 0 0 0 0 0 0 0 0 0 0 0 0 0 0 0 0 0 0 0 0 0 0 0 0 0 0 -0 -0 -0 -0 -0 -0 -0 -0 0 0 0 0 0 0 0 0
0 0 0 0 0 0 0 0 0 0 0 0 0 0 0 0 0 0 0 0 0 0 0 0 0 0 0 0 0 -0 -0 -0 -0 -0 -0 -0 0 0 0 0 0 0 0 0
0 0 0 0 0 0 0 0 0 0 0 0 0 0 0 0 0 0 0 0 0 0 0 0 0 0 0 0 0 0 -0 -0 -0 -0 -0 -0 0 0 0 0 0 0 0 0
0 0 0 0 0 0 0 0 0 0 0 0 0 0 0 0 0 0 0 0 0 0 0 0 0 0 0 0 0 0 0 -0 -0 -0 0 0 0 0 0 0 0 0 0 0
0 0 0 0 0 0 0 0 0 0 0 0 0 0 -0 -0 0 0 0 0 0 0 0 0 0 0 0 0 0 0 0 0 0 0 0 0 0 0 0 0 0 0 0 0
Wind_Speed
5 4 3 3 4 5 6 8 9 8 8 9 9 8 8 8 8 8 8 8 8 7 6 5 5 5 4 4 4 4 5 5 5 4 4 4 4 4 4 3 3 3 3 3
2 2 1 1 3 4 5 5 5 6 5 5 7 7 8 9 10 9 8 9 8 7 6 6 6 5 5 4 4 5 5 5 5 5 5 4 4 4 4 3 3 3 3 3
2 2 2 2 4 4 3 3 8 8 7 7 8 10 10 10 10 10 8 8 8 7 6 5 5 5 5 5 5 6 6 5 5 5 4 4 5 5 4 4 4 3 3 3
1 3 3 6 3 2 5 2 3 6 8 10 9 7 6 7 10 9 8 8 7 7 6 6 5 6 6 6 7 7 6 5 4 5 5 4 5 5 4 4 4 4 4 4
3 2 2 4 3 1 4 3 2 7 9 9 11 10 7 4 7 8 8 8 7 6 7 7 7 6 7 7 7 7 6 5 4 5 5 5 5 4 4 5 5 5 4 4
4 4 3 4 5 2 7 3 1 7 10 9 8 6 3 4 9 10 9 8 8 7 8 8 6 7 8 7 7 6 5 5 4 5 5 5 5 5 5 6 6 6 6 5
4 3 3 5 6 3 5 5 2 5 8 6 4 5 7 9 9 10 9 9 9 9 7 6 6 7 8 7 6 5 6 6 6 6 6 6 6 6 6 7 7 7 7 6
4 3 5 4 3 3 5 3 6 6 7 8 9 11 11 10 10 10 9 9 8 9 7 5 5 8 8 7 5 6 7 7 7 6 6 6 7 6 6 6 7 6 6 6
4 5 4 0 3 2 5 7 5 5 8 11 10 11 11 10 9 9 8 8 7 8 8 5 5 6 8 6 6 8 9 8 8 8 8 7 7 6 6 5 6 5 5 5
3 1 1 3 3 5 7 7 6 8 10 11 11 11 11 10 9 8 7 7 7 8 8 6 5 5 6 6 7 9 9 8 8 8 9 8 7 6 5 5 5 6 5 5
3 1 4 4 3 6 8 9 9 8 8 10 12 11 11 10 9 8 7 6 6 7 7 7 6 6 6 6 8 10 9 8 8 8 8 9 8 7 6 5 4 6 5 4
3 4 3 2 2 7 9 8 8 10 10 9 11 11 11 10 8 8 8 7 7 7 7 7 6 7 6 6 8 10 9 7 7 7 6 7 8 9 14 12 14 14 10 7
3 3 4 4 4 7 9 8 9 11 12 12 10 11 12 10 8 8 8 8 8 8 7 7 7 7 6 6 7 8 9 8 6 6 6 6 6 8 8 9 14 14 13 12
4 6 6 5 6 7 10 10 11 12 11 11 11 11 11 11 10 9 8 7 8 8 8 7 7 6 5 7 8 9 8 8 8 6 6 6 6 5 6 7 6 6 8 12
4 5 7 6 7 7 8 11 13 11 11 11 10 10 10 11 10 9 8 8 9 9 8 8 8 6 5 8 9 9 8 6 6 6 6 6 6 6 6 7 6 5 5 6
6 7 8 9 8 8 9 11 12 10 10 10 10 10 10 10 10 9 8 8 9 8 7 7 7 5 6 8 8 7 7 11 9 7 6 6 6 6 5 5 5 5 4 3
7 6 7 8 8 8 8 9 10 10 10 11 10 10 11 11 11 10 8 7 8 8 7 7 5 5 6 6 7 6 7 8 12 8 6 6 6 5 5 5 5 5 4 5
5 6 8 10 9 9 9 9 9 10 10 11 11 11 11 11 10 9 8 8 9 8 6 5 5 6 6 6 6 6 6 6 6 6 6 6 6 5 5 6 6 6 4 6
6 7 8 10 10 10 10 9 9 9 10 10 11 10 10 10 10 9 9 9 9 7 4 5 8 8 7 7 7 6 6 7 7 6 6 8 7 5 6 6 6 5 5 5
8 9 9 9 10 11 11 10 10 9 9 10 12 11 11 9 9 9 9 7 4 3 4 6 7 7 6 7 9 6 7 7 7 6 6 6 6 6 6 6 6 5 5 5
9 10 11 10 10 10 10 10 11 10 9 10 11 11 11 9 9 8 8 6 4 5 7 9 6 5 5 6 8 6 7 7 6 6 6 6 6 6 5 5 5 5 5 4
9 10 11 11 11 10 9 9 10 11 10 10 11 11 11 9 8 8 6 5 4 7 6 5 5 7 8 8 6 6 6 7 6 6 5 6 6 6 5 5 5 4 4 4
9 10 10 10 11 11 10 9 10 10 10 10 10 10 9 7 6 7 5 3 4 8 6 5 7 10 10 7 6 6 7 7 6 6 5 5 5 5 5 5 4 4 4 4
9 9 9 9 10 11 10 9 9 8 9 8 8 9 9 7 5 4 5 7 9 9 6 6 10 11 9 5 5 6 6 6 5 5 5 5 5 5 4 4 4 4 4 5
9 10 10 11 9 8 9 10 10 9 9 7 7 7 6 5 6 5 5 7 9 8 5 7 10 10 6 5 5 5 5 5 5 5 5 5 5 4 4 4 4 4 4 4
8 8 7 8 7 7 7 7 7 6 7 7 6 6 5 5 6 6 5 6 7 7 5 4 5 6 5 5 5 5 5 5 6 5 5 5 5 4 4 4 5 4 3 3
8 7 7 7 6 6 6 7 7 7 6 7 7 5 5 5 5 5 6 5 5 4 4 4 4 4 4 5 5 5 4 4 4 4 4 4 4 4 4 4 3 3 3 3
Wind_Direction
208 211 177 193 203 182 164 174 179 202 189 202 190 169 158 149 139 135 131 130 133 137 139 134 129 131 133 130 128 132 136 142 150 151 146 144 146 148 145 140 142 148 151 157
281 278 186 236 229 199 181 164 165 157 202 202 162 142 146 149 146 147 142 140 136 129 127 127 129 131 126 121 124 121 121 129 131 127 126 127 134 133 126 122 119 118 127 127
261 308 57 273 248 205 182 167 157 175 199 155 147 158 163 157 148 147 145 135 128 125 121 119 119 122 123 118 109 107 109 113 120 125 125 127 129 123 122 117 110 109 113 110
117 74 186 242 272 128 127 105 138 151 154 154 151 132 119 131 136 141 135 123 117 115 112 105 101 102 102 101 99 99 97 98 105 116 117 117 115 116 117 110 108 104 97 95
118 138 254 312 340 32 121 50 51 128 132 124 113 90 59 70 120 129 127 120 115 112 109 103 99 100 99 96 96 94 90 87 92 103 110 111 110 112 112 107 97 91 85 83
125 138 203 254 289 290 102 69 337 122 131 135 119 116 152 119 108 106 103 103 100 94 95 95 95 99 97 95 95 94 92 87 86 94 103 107 108 105 99 99 98 92 78 67
138 153 244 267 299 41 121 196 194 129 131 125 122 143 137 120 107 106 105 104 98 92 90 93 97 98 97 95 92 93 92 86 81 82 89 93 91 90 96 97 92 86 80 64
136 147 237 294 16 119 182 160 131 119 118 107 110 113 116 115 112 110 106 101 100 99 92 84 91 100 99 95 92 91 90 85 80 76 81 86 90 89 91 98 96 89 83 69
161 186 223 189 140 164 133 119 111 113 115 118 121 121 118 114 113 111 108 103 100 106 101 88 88 105 108 103 99 95 90 85 82 79 73 73 82 88 87 88 94 91 87 81
84 55 56 52 83 92 97 104 112 121 122 126 127 126 120 116 112 107 102 102 105 108 107 102 95 96 107 108 103 100 96 91 88 86 78 68 65 65 74 79 94 96 94 90
87 109 59 39 77 108 104 101 104 108 114 124 122 123 121 117 114 110 105 102 106 112 113 108 104 103 106 112 112 106 101 99 95 90 89 81 70 57 62 47 69 100 99 99
200 211 147 160 128 114 109 105 115 117 110 111 117 121 117 113 111 108 106 104 102 99 101 102 105 108 111 116 118 115 109 106 104 102 97 96 95 78 57 65 66 69 77 88
175 147 135 128 99 101 106 110 113 113 116 113 110 116 117 115 111 109 107 106 106 103 100 100 102 101 103 109 114 116 117 115 111 109 109 106 103 102 94 67 62 63 68 77
122 110 100 99 101 99 106 110 106 103 104 108 111 112 114 112 112 111 110 111 108 104 99 97 97 95 99 105 107 110 112 114 115 114 112 107 103 101 102 103 89 62 53 69
89 109 119 112 103 103 109 110 105 105 108 106 109 113 115 116 115 113 113 112 105 99 98 98 97 95 98 104 107 110 113 117 116 115 111 106 102 97 94 93 94 90 75 63
110 107 112 115 118 116 113 112 115 117 116 114 112 112 113 113 111 107 105 107 107 106 105 102 100 103 102 103 104 104 106 110 112 113 110 106 103 101 98 96 93 88 83 77
129 133 131 123 123 120 115 114 117 119 117 117 119 119 116 112 108 105 100 97 100 100 100 103 107 107 104 104 106 107 109 110 108 106 106 108 108 107 106 102 96 88 80 84
139 142 135 129 127 120 114 111 112 114 117 119 119 117 117 118 116 112 106 101 95 87 82 92 101 102 97 99 104 106 108 108 109 111 110 107 107 106 105 103 102 99 88 83
114 115 115 119 122 120 116 114 110 110 113 116 116 115 114 114 114 111 105 100 99 94 80 83 91 91 96 101 104 105 109 109 105 105 107 110 105 102 102 102 101 101 100 92
112 111 113 114 116 118 118 116 112 111 113 117 115 113 111 112 113 108 101 94 92 109 108 95 91 87 89 97 101 102 104 106 107 107 106 108 108 106 106 107 107 104 101 100
114 112 113 114 112 112 116 120 120 119 119 119 120 120 116 110 109 108 106 97 75 86 90 88 86 87 86 98 98 99 102 104 104 105 109 110 110 109 108 109 110 111 112 110
110 111 111 114 114 111 111 114 117 119 118 118 117 117 114 110 106 98 91 106 110 99 89 79 82 89 98 99 95 101 105 106 105 107 110 113 115 115 115 115 116 116 114 113
112 112 112 115 116 114 109 111 115 118 120 121 121 121 118 116 117 117 109 98 101 97 91 89 96 95 97 94 96 99 101 104 108 112 116 118 118 120 121 119 119 118 118 117
111 109 109 110 110 111 112 112 111 111 111 112 116 120 119 113 97 90 111 111 106 100 94 99 99 98 96 94 96 97 101 106 109 110 112 114 116 117 118 119 119 122 124 122
111 112 114 115 115 117 119 116 111 109 108 106 107 108 108 114 121 120 114 114 113 105 97 96 96 95 92 95 97 101 105 109 113 114 111 113 117 119 120 121 125 126 127 130
109 111 114 115 118 120 120 118 115 117 116 111 105 104 103 103 110 112 112 114 113 109 104 98 93 91 93 95 98 101 101 102 102 104 110 114 116 116 116 117 122 130 135 139
100 101 104 104 104 109 114 116 118 118 118 119 117 115 116 114 113 115 114 113 112 107 104 101 100 101 101 100 99 99 99 100 102 106 109 110 113 119 126 127 129 134 135 135